Flag for Turkey Weather past 2 weeks in Gaziantep, Turkey

Now
46 °F

Light rain. Fog.


Feels Like: 43 °F
Forecast: 38 / 48 °F
Wind: 7 mph from Northeast

Location: Gaziantep Airport

Current Time: Dec 19, 2014 at 6:54:11 AM

Latest Report: Dec 19, 2014 at 6:20 AM


Visibility: 2 mi

Pressure: 30.09 "Hg

Humidity: 87%

Dew point: 43 °F

Location of GaziantepLocation

Historic Weather in Gaziantep — Graph

°F

Gaziantep temperature yesterday

Maximum temperature yesterday: 52 °F (at 11:20 AM)
Minimum temperature yesterday: 43 °F (at 12:20 AM)
Average temperature yesterday: 47 °F

Past Weeks' High & Low Weather Summary

 TemperatureHumidityPressure
High59 °F (Dec 7, 11:50 AM)100% (Dec 5, 11:50 PM)30.36 "Hg (Dec 5, 11:50 PM)
Low32 °F (Dec 17, 5:20 AM)36% (Dec 16, 1:20 PM)29.98 "Hg (Dec 9, 3:20 PM)
Average50 °F82%30.18 "Hg
* Reported Dec 4 5:20 AM — Dec 19 5:20 AM, Gaziantep, Weather by CustomWeather, © 2014

Note: Actual official high and low records may vary slightly from our data, if they occured in-between our weather recording intervals... More about our weather records

Advertising

Gaziantep weather history for previous 24 hours

 ConditionsComfort  
Time TempWeatherWind HumidityBarometerVisibility
5:20 AM
Dec 19
46 °FFog.8 mph87%30.09 "Hg2 mi
4:50 AM46 °FFog.5 mph93%30.09 "Hg2 mi
4:20 AM46 °FFog.6 mph87%30.09 "Hg2 mi
3:50 AM46 °FFog.7 mph87%30.09 "Hg2 mi
3:20 AM46 °FFog.7 mph87%30.09 "Hg3 mi
2:50 AM46 °FFog.8 mph87%30.12 "Hg3 mi
2:20 AM46 °FFog.5 mph93%30.12 "Hg3 mi
1:50 AM46 °FFog.3 mph87%30.12 "Hg3 mi
1:20 AM46 °FFog.8 mph87%30.12 "Hg3 mi
12:50 AM46 °FFog.6 mph93%30.12 "Hg3 mi
12:20 AM46 °FFog.7 mph93%30.12 "Hg2 mi
11:50 PM
Dec 18
46 °FFog.6 mph93%30.12 "Hg2 mi
11:20 PM46 °FMostly cloudy.6 mph87%30.15 "Hg4 mi
10:20 PM46 °FOvercast.10 mph87%30.12 "Hg4 mi
9:50 PM48 °FMostly cloudy.9 mph82%30.12 "HgN/A
9:20 PM48 °FOvercast.3 mph82%30.15 "HgN/A
8:50 PM48 °FOvercast.6 mph82%30.15 "HgN/A
8:20 PM48 °FOvercast.7 mph82%30.15 "HgN/A
7:50 PM48 °FOvercast.8 mph82%30.12 "HgN/A
7:20 PM48 °FOvercast.9 mph82%30.12 "HgN/A
6:50 PM48 °FPartly cloudy.8 mph82%30.12 "HgN/A
6:20 PM48 °FPartly cloudy.6 mph87%30.15 "HgN/A
5:50 PM48 °FPartly cloudy.6 mph87%30.12 "HgN/A
5:20 PM48 °FPartly cloudy.5 mph87%30.12 "HgN/A
4:50 PM50 °FPartly cloudy.6 mph82%30.12 "HgN/A
4:20 PM50 °FPassing clouds.6 mph76%30.12 "HgN/A
3:50 PM50 °FBroken clouds.5 mph76%30.12 "HgN/A
3:20 PM52 °FBroken clouds.6 mph72%30.15 "HgN/A
2:50 PM52 °FBroken clouds.7 mph72%30.12 "HgN/A
2:20 PM52 °FBroken clouds.7 mph72%30.12 "HgN/A
1:50 PM52 °FBroken clouds.6 mph72%30.12 "HgN/A
1:20 PM52 °FBroken clouds.7 mph72%30.12 "HgN/A
12:50 PM52 °FBroken clouds.10 mph72%30.12 "HgN/A
12:20 PM52 °FBroken clouds.10 mph72%30.12 "HgN/A
11:50 AM52 °FBroken clouds.9 mph72%30.15 "HgN/A
11:20 AM52 °FBroken clouds.8 mph67%30.15 "HgN/A
10:50 AM50 °FBroken clouds.8 mph71%30.18 "HgN/A
10:20 AM48 °FBroken clouds.6 mph76%30.21 "HgN/A
9:50 AM48 °FBroken clouds.5 mph76%30.21 "HgN/A
9:20 AM48 °FBroken clouds.1 mph76%30.24 "HgN/A
8:50 AM46 °FBroken clouds.6 mph76%30.21 "HgN/A
8:20 AM45 °FBroken clouds.2 mph81%30.21 "HgN/A
7:50 AM43 °FPartly sunny.No wind87%30.21 "HgN/A
7:20 AM43 °FSunny.No wind87%30.21 "Hg10 mi
6:50 AM43 °FSunny.No wind87%30.21 "Hg10 mi
6:20 AM43 °FClear.No wind87%30.18 "Hg10 mi
Weather by CustomWeather, © 2014

See weather overviewHow to use our weather pages